Location: Rancho Del Sol Observatory
(38.7214°N, 120.6350°W)
Time: 02:23:41
(UTC-08:00)

N. Korean satellite - Visible Passes

Search period start: 06 December 2019 00:00
Search period end: 16 December 2019 00:00
Orbit: 456 x 506 km, 97.2° (Epoch: 05 December)

Date Brightness Start Highest point End Pass type
(mag) Time Alt. Az. Time Alt. Az. Time Alt. Az.
06 Dec 9.5 05:05:03 10° NE 05:07:31 18° E 05:09:56 10° SE visible
06 Dec 6.7 17:10:57 10° S 17:14:39 84° WSW 17:18:22 10° NNW visible
07 Dec 6.6 06:12:08 10° N 06:15:34 50° WNW 06:18:56 10° SSW visible
07 Dec 10.3 18:21:56 10° WSW 18:22:52 11° W 18:23:49 10° WNW visible
08 Dec 6.8 05:46:39 10° NNE 05:50:11 68° E 05:53:37 10° S visible
08 Dec 9.4 17:54:19 10° SSW 17:57:16 22° W 18:00:13 10° NW visible
09 Dec 8.6 05:21:34 10° NE 05:24:41 29° E 05:27:44 10° SSE visible
09 Dec 7.8 17:28:10 10° S 17:31:45 47° W 17:35:20 10° NNW visible
10 Dec 9.8 04:57:14 10° ENE 04:59:05 14° E 05:00:55 10° SE visible
10 Dec 7.3 06:29:28 10° N 06:32:33 29° WNW 06:35:34 10° SW visible
11 Dec 6.4 06:03:43 10° N 06:07:12 66° WNW 06:10:38 10° SSW visible
11 Dec 10.0 18:12:31 10° SW 18:14:27 14° W 18:16:22 10° WNW visible
12 Dec 7.4 05:38:21 10° NNE 05:41:47 50° E 05:45:07 10° S visible
12 Dec 9.0 17:45:40 10° SSW 17:48:53 28° W 17:52:04 10° NW visible
13 Dec 9.1 05:13:26 10° NE 05:16:15 22° E 05:19:00 10° SSE visible
13 Dec 7.2 17:19:43 10° S 17:23:22 62° W 17:27:01 10° NNW visible
14 Dec 10.1 04:49:53 10° E 04:50:36 10° E 04:51:20 10° ESE visible
14 Dec 7.0 06:20:57 10° N 06:24:11 36° WNW 06:27:22 10° SW visible
15 Dec 6.4 05:55:19 10° N 05:58:48 88° WNW 06:02:14 10° SSW visible
15 Dec 9.8 18:03:32 10° SW 18:06:00 17° W 18:08:28 10° NW visible
